Regional Weather Roundup
Issued by NWS

Home | Current Version | Previous Version | Graphics & Text | Print | Product List | Glossary On
Versions: 1 2 3 4 5 6 7 8 9 10 11 12 13 14 15 16 17 18 19 20 21 22 23 24 25 26 27 28 29 30 31 32 33 34 35 36 37 38 39 40 41 42 43 44 45 46 47 48 49 50
481
ASUS43 KLOT 240208
RWRIL

ILLINOIS REGIONAL WEATHER ROUNDUP
NATIONAL WEATHER SERVICE CHICAGO/ROMEOVILLE IL
800 PM CST TUE JAN 23 2018

NOTE: "FAIR" INDICATES FEW OR NO CLOUDS BELOW 12,000 FEET WITH NO
SIGNIFICANT WEATHER AND/OR OBSTRUCTIONS TO VISIBILITY.

* THESE STATIONS ARE NOT UNDER NWS QUALITY CONTROL. THEY ALSO MAY NOT
  REPORT WEATHER SUCH AS PRECIPITATION OR FOG.

ILZ001-002-007-009-015-016-024-240300-
NORTHWEST ILLINOIS

CITY           SKY/WX    TMP DP  RH WIND       PRES   REMARKS
MOLINE         CLOUDY    28  21  75 NW12      30.17R WCI  18
SAVANNA*       CLOUDY    26  22  84 NW7       30.16R WCI  18
$$

ILZ003-004-008-010-011-017-018-240300-
NORTH CENTRAL ILLINOIS

CITY           SKY/WX    TMP DP  RH WIND       PRES   REMARKS
ROCKFORD       CLOUDY    28  22  78 N7        30.13S WCI  21
FREEPORT*      CLOUDY    26  22  85 NW7       30.14S WCI  18
ROCHELLE*      CLOUDY    28  25  88 NW12      30.13R WCI  18
DE KALB*       CLOUDY    28  25  87 N6        30.12R WCI  22
PERU*          CLOUDY    26  23  87 W8        30.16R WCI  18
$$

ILZ005-006-012>014-019>023-240300-
NORTHEAST ILLINOIS

CITY           SKY/WX    TMP DP  RH WIND       PRES   REMARKS
CHICAGO-OHARE  CLOUDY    30  22  72 NW12      30.11R WCI  20
CHICAGO-MIDWAY CLOUDY    30  23  75 NW10      30.11R WCI  21
AURORA         CLOUDY    29  25  85 NW13      30.12R WCI  19
LANSING*       CLOUDY    29  25  84 NW6       30.12R WCI  23
JOLIET*        CLOUDY    31  26  83 N9        30.13R WCI  23
WAUKEGAN       CLOUDY    28  24  85 NW3       30.09R
DUPAGE AIRPORT CLOUDY    28  23  81 NW9       30.11R WCI  19
KANKAKEE*      CLOUDY   N/A N/A N/A NW10      30.13R
WHEELING       CLOUDY    30  23  75 NW9       30.12R WCI  22
MORRIS*        CLOUDY    30  26  83 N6        30.13R WCI  24
ROMEOVILLE*    CLOUDY    29  25  84 N6        30.12R WCI  23
NORTHERLY ISL    N/A     30  22  72 NW10        N/A  WCI  21
$$

LMZ740>746-240300-
SOUTHERN LAKE MICHIGAN

STATION/POSITION SKY/WX   TEMP    WIND        PRES    VSBY  WAVE
                          AIR SEA DIR/SP/G                  HT/PER
                          (F)     (DEG/KT/KT) (MB)    (MI)  (FT/S)
HARRISON CRIB              30     340/ 12/ 13   N/A
BURNHAM HARBOR             30     300/  6/ 15   N/A
CALUMET HARBOR             29     330/  7/  9 1018.9R
BURNS HARBOR               30     310/ 12/ 14 1019.6R
MICHIGAN CITY              30     280/ 19/ 20   N/A
$$

ILZ025>027-034>036-040-047-049-050-058-095>099-240300-
WEST-CENTRAL ILLINOIS

CITY           SKY/WX    TMP DP  RH WIND       PRES   REMARKS
QUINCY         CLOUDY    30  23  75 NW13      30.20R WCI  20
GALESBURG*     CLOUDY    30  24  79 W13G18    30.18R WCI  20
MACOMB*        CLOUDY    29  24  81 W13       30.22R WCI  18
JACKSONVILLE*  CLOUDY    30  24  79 W14       30.20R WCI  20
PITTSFIELD*    CLOUDY    32  26  78 W9G16     30.23R WCI  24
$$

ILZ028>032-037-038-041>044-048-051>054-059>061-240300-
CENTRAL ILLINOIS

CITY           SKY/WX    TMP DP  RH WIND       PRES   REMARKS
PONTIAC        CLOUDY    30  28  94 NW12G18   30.16R WCI  20
BLOOMINGTON    CLOUDY    29  24  82 NW18G24   30.15R WCI  16
DECATUR        CLOUDY    31  25  78 W14       30.18R WCI  21
PEORIA         CLOUDY    30  22  72 NW7       30.17R WCI  23
LACON*         CLOUDY    28  23  81 NW7       30.17R WCI  21
LINCOLN*       CLOUDY    32  25  76 W7        30.18R WCI  25
SPRINGFIELD    CLOUDY    32  25  75 NW8       30.19R WCI  25
TAYLORVILLE    CLOUDY    31  25  77 NW10      30.20R WCI  22
$$

ILZ033-039-045-046-055>057-062-063-240300-
EAST-CENTRAL ILLINOIS

CITY           SKY/WX    TMP DP  RH WIND       PRES   REMARKS
CHAMPAIGN      CLOUDY    31  27  85 NW13      30.15R WCI  21
DANVILLE*      CLOUDY    31  28  91 W10       30.11R WCI  22
RANTOUL*       CLOUDY    32  29  90 NW13      30.14R WCI  23
MATTOON        CLOUDY    31  27  85 NW13      30.17R WCI  21
PARIS*         CLOUDY    32  31  96 NW14      30.16R WCI  22
$$

ILZ079-100>102-240300-
SOUTHWEST ILLINOIS

CITY           SKY/WX    TMP DP  RH WIND       PRES   REMARKS
ALTON          CLOUDY    34  28  80 W7        30.22R WCI  28
BELLEVILLE     CLOUDY    36  25  64 W8        30.21R WCI  29
CAHOKIA*       CLOUDY    36  25  64 NW10      30.22S WCI  28
SPARTA*        CLOUDY    35  28  78 W6        30.24R WCI  30
$$

ILZ064>066-069>071-074>076-080>082-084>086-088>090-092>094-240300-
SOUTH-CENTRAL ILLINOIS

CITY           SKY/WX    TMP DP  RH WIND       PRES   REMARKS
CARBONDALE     CLOUDY    37  29  72 NW6       30.23R WCI  32
CAIRO*         CLOUDY    32  30  92 CALM      30.25R
EFFINGHAM*     CLOUDY    33  30  88 W12       30.21R WCI  24
MARION         CLOUDY    36  28  72 CALM      30.24R
MT. VERNON     CLOUDY    35  28  75 W5        30.23R WCI  31
CENTRALIA*     CLOUDY    35  29  80 W12       30.21R WCI  26
SALEM*         CLOUDY    35  29  78 W8        30.21R WCI  28
METROPOLIS*    CLOUDY    37  29  70 CALM      30.25R
$$

ILZ067-068-072-073-078-083-087-091-240300-
SOUTHEAST ILLINOIS

CITY           SKY/WX    TMP DP  RH WIND       PRES   REMARKS
LAWRENCEVILLE  CLOUDY    34  29  82 W7        30.20R WCI  28
FLORA*         CLOUDY    35  29  80 NW8       30.21R WCI  28
FAIRFIELD*     CLOUDY    34  28  79 CALM      30.21R
HARRISBURG*    CLOUDY    36  30  80 W3        30.24R
ROBINSON*      CLOUDY    32  31  95 W7        30.19R WCI  25
CARMI*         CLOUDY    34  30  84 NW9       30.22R WCI  27
$$

ABBREVIATIONS USED IN REMARKS
   TC - TEMPERATURE IN CELSIUS
  WCI - WIND CHILL INDEX
   HX - HEAT INDEX
  VSB - VISIBILITY
$$





USA.gov is the U.S. government's official web portal to all federal, state and local government web resources and services.